FW2015 Weather Reports


time (UTC)temp
F
wind
direction
speed
knots
gust
knots
rain 1hr
in
rain 24hr
in
rain mn
in
humidity
%
barometer
mb
20260506211603 59 226 7.0 17.4 0.00 0.00 0.00 90 1006.6
20260506210046 59 223 7.8 17.4 0.00 0.00 0.00 89 1006.6
20260506204554 59 228 8.7 17.4 0.00 0.00 0.00 89 1006.5
20260506203047 60 225 8.7 18.2 0.00 0.00 0.00 88 1006.6
20260506201556 60 250 7.8 14.8 0.00 0.00 0.00 88 1006.6
20260506200041 60 209 7.8 13.0 0.00 0.00 0.00 88 1007.0
20260506194546 60 259 7.0 16.5 0.00 0.00 0.00 89 1007.1
20260506193040 58 218 7.8 17.4 0.00 0.00 0.00 91 1007.2
20260506191544 58 202 7.8 18.2 0.00 0.00 0.00 92 1007.1
20260506190035 58 200 7.8 20.0 0.00 0.00 0.00 94 1007.5
20260506184533 58 249 7.0 17.4 0.00 0.00 0.00 93 1007.7
20260506183040 57 211 11.3 20.0 0.00 0.00 0.00 92 1007.9
20260506181529 57 144 8.7 20.0 0.00 0.00 0.00 92 1008.0
20260506180028 57 197 10.4 20.0 0.00 0.00 0.00 91 1008.1
20260506174526 58 229 9.6 22.6 0.00 0.00 0.00 91 1008.6
20260506173024 58 184 8.7 18.2 0.00 0.00 0.00 90 1008.5
20260506171529 59 241 13.0 20.0 0.00 0.00 0.00 88 1008.6
20260506170020 58 245 9.6 20.0 0.00 0.00 0.00 90 1008.9
20260506164519 58 175 11.3 20.0 0.00 0.00 0.00 89 1009.3
20260506163018 58 212 11.3 19.1 0.00 0.00 0.00 90 1009.6
20260506161516 57 235 9.6 17.4 0.00 0.00 0.00 90 1009.8
20260506160016 57 202 6.1 16.5 0.00 0.00 0.00 90 1010.0
20260506154512 57 252 9.6 17.4 0.00 0.00 0.00 90 1010.1
20260506153012 57 162 8.7 19.1 0.00 0.00 0.00 89 1010.0
20260506151511 58 158 6.1 17.4 0.00 0.00 0.00 89 1010.2
20260506150010 58 231 7.0 17.4 0.00 0.00 0.00 88 1010.3
20260506144509 59 212 8.7 17.4 0.00 0.00 0.00 87 1010.5
20260506143020 58 194 10.4 19.1 0.00 0.00 0.00 88 1010.6
20260506141510 58 214 7.8 18.2 0.00 0.00 0.00 89 1010.5
20260506140007 58 219 8.7 19.1 0.00 0.00 0.00 89 1010.4
20260506134510 59 238 11.3 19.1 0.00 0.00 0.00 88 1010.5
20260506133008 59 216 10.4 23.5 0.00 0.00 0.00 87 1010.8
20260506131508 59 214 8.7 20.0 0.00 0.00 0.00 87 1010.8
20260506130011 59 202 10.4 21.7 0.00 0.00 0.00 88 1010.7
20260506124505 59 226 11.3 20.9 0.00 0.00 0.00 88 1010.8
20260506123003 59 243 10.4 21.7 0.00 0.00 0.00 88 1010.7
20260506121600 58 224 9.6 20.0 0.00 0.00 0.00 90 1010.7
20260506120059 58 219 9.6 19.1 0.00 0.00 0.00 90 1010.7
20260506114556 57 195 7.8 20.0 0.00 0.00 0.00 91 1010.8
20260506113055 57 240 7.8 19.1 0.00 0.00 0.00 92 1010.7
20260506111555 57 216 10.4 18.2 0.00 0.00 0.00 92 1010.8
20260506110054 56 217 9.6 20.9 0.00 0.00 0.00 93 1010.7
20260506104553 56 228 8.7 16.5 0.00 0.00 0.00 93 1010.5
20260506103055 56 240 10.4 19.1 0.00 0.00 0.00 94 1010.5
20260506101549 55 218 8.7 18.2 0.00 0.00 0.00 95 1010.5
20260506100047 55 248 7.0 14.8 0.00 0.00 0.00 95 1010.3
20260506094545 55 174 6.1 15.6 0.00 0.00 0.00 95 1010.3
20260506093042 55 219 7.8 13.9 0.00 0.00 0.00 95 1010.4
20260506091540 55 239 7.0 16.5 0.00 0.00 0.00 94 1010.6
20260506090046 55 213 8.7 15.6 0.00 0.00 0.00 94 1010.8
20260506084539 55 169 5.2 14.8 0.00 0.00 0.00 94 1010.9
20260506083032 55 188 7.0 15.6 0.00 0.00 0.00 94 1010.8
20260506081537 56 181 9.6 17.4 0.00 0.00 0.00 94 1010.8
20260506073025 57 302 9.6 19.1 0.00 0.00 0.00 92 1011.1
20260506071523 57 205 9.6 20.0 0.00 0.00 0.00 92 1011.1
20260506061536 57 179 8.7 23.5 0.00 0.00 0.00 90 1010.9
20260506044601 56 210 9.6 15.6 0.00 0.00 0.00 91 1011.5
20260506043105 56 224 9.6 15.6 0.00 0.00 0.00 91 1011.6
20260506041556 56 215 8.7 16.5 0.00 0.00 0.00 90 1011.5
20260506034558 55 274 8.7 18.2 0.00 0.00 0.00 90 1011.6
20260506033052 56 229 8.7 19.1 0.00 0.00 0.00 89 1011.8
20260506031553 56 205 8.7 17.4 0.00 0.00 0.00 89 1011.7
20260506030055 56 172 7.0 15.6 0.00 0.00 0.00 89 1011.7
20260506024558 57 243 10.4 20.0 0.00 0.00 0.00 88 1011.7
20260506023051 57 233 10.4 18.2 0.00 0.00 0.00 87 1011.9
20260506021601 58 203 7.8 20.0 0.00 0.00 0.00 86 1011.8
20260506020048 57 165 7.8 14.8 0.00 0.00 0.00 87 1011.7
20260506014548 57 255 9.6 18.2 0.00 0.00 0.00 86 1011.5
20260506013056 57 219 9.6 17.4 0.00 0.00 0.00 87 1011.5
20260506011601 57 241 9.6 17.4 0.00 0.00 0.00 87 1011.3
20260506010046 57 240 6.1 15.6 0.00 0.00 0.00 87 1011.3
20260506004546 58 214 9.6 20.9 0.00 0.00 0.00 86 1011.2
20260506003147 58 210 11.3 21.7 0.00 0.00 0.00 86 1011.1
20260506001550 57 239 10.4 19.1 0.00 0.00 0.00 86 1011.0
20260506000046 57 218 8.7 18.2 0.00 0.00 0.00 85 1010.9
20260505234544 58 148 10.4 18.2 0.00 0.00 0.00 84 1010.7
20260505233044 59 203 8.7 21.7 0.00 0.00 0.00 83 1010.8
20260505231601 60 237 9.6 20.9 0.00 0.00 0.00 81 1010.5
20260505230043 60 245 9.6 20.9 0.00 0.00 0.00 80 1010.5
20260505224542 60 253 10.4 21.7 0.00 0.00 0.00 79 1010.3
20260505223042 61 244 10.4 23.5 0.00 0.00 0.00 77 1010.3
20260505221542 62 229 12.2 23.5 0.00 0.00 0.00 76 1010.1
20260505220041 62 212 12.2 25.2 0.00 0.00 0.00 77 1010.1
20260505214600 61 188 11.3 24.3 0.00 0.00 0.00 78 1010.0
20260505213039 61 255 13.0 26.1 0.00 0.00 0.00 79 1009.9